Weather History for Ashtabula, OH

Change the Weather History Date:

Monday, November 4, 2013

  Actual Average (KYNG) Record (KYNG)
Temperature  
Mean Temperature 34 °F 46 °F  
Max Temperature 42 °F 54 °F 77 °F (2003)
Min Temperature 26 °F 37 °F 14 °F (1991)
Degree Days  
Heating Degree Days 31 20  
Month to date heating degree days 77  
Since 1 July heating degree days 698  
Cooling Degree Days 0 0  
Month to date cooling degree days 0  
Year to date cooling degree days 544  
Moisture  
Dew Point 19 °F    
Average Humidity 54    
Maximum Humidity 81    
Minimum Humidity 34    
Precipitation  
Precipitation 0.00 in 0.11 in 2.73 in (1985)
Month to date precipitation 0.42  
Year to date precipitation 33.16  
Snow  
Snow 0.00 in 0.10 in - ()
Month to date snowfall 0.2  
Since 1 July snowfall 1.0  
Since 1 September snowfall 1.0  
Snow Depth -    
Sea Level Pressure  
Sea Level Pressure 30.51 in    
Wind  
Wind Speed 6 mph (SE)    
Max Wind Speed 14 mph    
Max Gust Speed 20 mph    
Visibility 10 miles    
Events      
T = Trace of Precipitation, MM = Missing Value Source: NWS Daily Summary

Daily Weather History Graph

Daily Weather History Graph

Search for Another Location

Airport:

Trip Planner

Search our weather history database for the weather conditions in past years. The results will help you decide how hot, cold, wet, or windy it might be!

Date:

Astronomy

Nov. 04, 2013 Rise Set
Actual Time 6:58 AM EST 5:13 PM EST
Civil Twilight 6:29 AM EST 5:42 PM EST
Nautical Twilight 5:56 AM EST 6:15 PM EST
Astronomical Twilight 5:24 AM EST 6:47 PM EST
Moon 8:08 AM EST (11/4) 6:15 PM EST (11/4)
Length of Visible Light 11h 12m
Length of Day
10h 14m
New Moon, 2% of the Moon is Illuminated
Nov 4
New Moon
Nov 10
First Quarter
Nov 17
Full
Nov 25
Last Quarter
Dec 2
New

Hourly Weather History & Observations

Time (EST) Temp. Windchill Dew Point Humidity Pressure Visibility Wind Dir Wind Speed Gust Speed Precip Events Conditions
12:53 AM 28.0 °F - 21.0 °F 75% 30.54 in 10.0 mi Calm Calm - N/A   Clear
1:53 AM 27.0 °F 23.0 °F 21.9 °F 81% 30.55 in 10.0 mi ESE 3.5 mph - N/A   Clear
2:53 AM 26.1 °F 21.9 °F 19.9 °F 78% 30.55 in 10.0 mi SE 3.5 mph - N/A   Clear
3:53 AM 28.0 °F 19.3 °F 19.9 °F 72% 30.54 in 10.0 mi ESE 9.2 mph - N/A   Clear
4:53 AM 28.0 °F 22.8 °F 19.9 °F 72% 30.56 in 10.0 mi ESE 4.6 mph - N/A   Clear
5:53 AM 28.9 °F 22.8 °F 19.0 °F 67% 30.58 in 10.0 mi SE 5.8 mph - N/A   Clear
6:53 AM 28.0 °F 22.8 °F 19.0 °F 69% 30.58 in 10.0 mi ESE 4.6 mph - N/A   Clear
7:53 AM 30.0 °F 22.4 °F 21.0 °F 69% 30.59 in 10.0 mi SE 8.1 mph - N/A   Clear
8:53 AM 32.0 °F 24.2 °F 19.9 °F 61% 30.59 in 10.0 mi SE 9.2 mph - N/A   Clear
9:53 AM 34.0 °F 26.6 °F 21.0 °F 59% 30.58 in 10.0 mi SE 9.2 mph - N/A   Clear
10:53 AM 35.1 °F 26.4 °F 19.0 °F 52% 30.56 in 10.0 mi ESE 12.7 mph - N/A   Clear
11:53 AM 37.9 °F 32.1 °F 19.9 °F 48% 30.53 in 10.0 mi SE 8.1 mph - N/A   Clear
12:53 PM 39.0 °F 31.4 °F 16.0 °F 39% 30.51 in 10.0 mi SE 12.7 mph 19.6 mph N/A   Clear
1:53 PM 41.0 °F 34.7 °F 17.1 °F 38% 30.50 in 10.0 mi SE 10.4 mph - N/A   Clear
2:53 PM 42.1 °F 34.9 °F 17.1 °F 37% 30.47 in 10.0 mi SE 13.8 mph 18.4 mph N/A   Clear
3:53 PM 42.1 °F 36.6 °F 15.1 °F 34% 30.46 in 10.0 mi SE 9.2 mph - N/A   Clear
4:53 PM 41.0 °F 36.4 °F 16.0 °F 36% 30.45 in 10.0 mi SE 6.9 mph - N/A   Clear
5:53 PM 39.9 °F 35.1 °F 17.1 °F 40% 30.45 in 10.0 mi SSE 6.9 mph - N/A   Clear
6:53 PM 39.9 °F 33.9 °F 17.1 °F 40% 30.45 in 10.0 mi SSE 9.2 mph - N/A   Clear
7:53 PM 39.9 °F 32.5 °F 18.0 °F 41% 30.45 in 10.0 mi SSE 12.7 mph - N/A   Clear
8:53 PM 39.9 °F 32.9 °F 19.0 °F 43% 30.43 in 10.0 mi SSE 11.5 mph - N/A   Clear
9:53 PM 39.0 °F 32.8 °F 19.9 °F 46% 30.44 in 10.0 mi South 9.2 mph - N/A   Clear
10:53 PM 39.0 °F 33.4 °F 21.0 °F 49% 30.44 in 10.0 mi South 8.1 mph - N/A   Clear
11:53 PM 39.0 °F 32.3 °F 21.0 °F 49% 30.43 in 10.0 mi South 10.4 mph - N/A   Clear